View from above orbital plane
|
View from above satellite
|
Ground track
|
The orbit data is extracted from the following two-line orbital elements,
1 23317U 94066A 19345.73905479 .00000168 00000-0 15706-4 0 9995
2 23317 82.5365 344.6327 0018293 294.1897 65.7408 14.87720844360856
Epoch (UTC): | 11 December 2019 17:44:14 |
Eccentricity: | 0.0018293 |
inclination: | 82.5365° |
perigee height: | 592 km |
apogee height: | 618 km |
right ascension of ascending node: | 344.6327° |
argument of perigee: | 294.1897° |
revolutions per day: | 14.87720844 |
mean anomaly at epoch: | 65.7408° |
orbit number at epoch: | 36085 |
The dashed part of the orbit path shows where the satellite is in the earth's shadow,
|
|